Weather Roundup
Issued by NWS Springfield, MO

Home | Current Version | Previous Version | Text Only | Print | Product List | Glossary On
Versions: 1 2 3 4 5 6 7 8 9 10 11 12 13 14 15 16 17 18 19 20 21 22 23 24 25 26 27 28 29 30 31 32 33 34 35 36 37 38 39 40 41 42 43 44 45 46 47 48 49 50
000
NZUS99 KSGF 271559
HRRSGF

HOURLY WEATHER
NATIONAL WEATHER SERVICE SPRINGFIELD MO
1100 AM CDT FRI MAR 27 2015

......SGF CWA......

CITY           SKY/WX    TMP DP  RH WIND       PRES   REMARKS
SPRINGFIELD    CLOUDY    37  30  75 N13       30.19S WCI  29
JOPLIN         PTSUNNY   40  29  64 N12G22    30.25R WCI  33
WEST PLAINS    CLOUDY    38  31  76 MISG      30.16R
ROLLA          PTSUNNY   36  23  59 MISG      30.17R
OSAGE BEACH    CLOUDY    37  25  60 NW6       30.20F WCI  33
BRANSON        CLOUDY    39  36  87 N15G26    30.18R WCI  31

......SURROUNDING SGF CWA......

CITY           SKY/WX    TMP DP  RH WIND       PRES   REMARKS
CHANUTE        PTSUNNY   41  27  57 N12       30.27S
PARSONS        PTSUNNY   45  29  53 N9G20     30.28R
COFFEYVILLE    MOSUNNY   45  30  55 N14G23    30.27R
EMPORIA        PTSUNNY   40  28  62 N10       30.27F WCI  33
ROGERS AR      CLOUDY    39  34  81 N8G16     30.20R WCI  34
SILOAM SPRINGS CLOUDY    45  32  61 N15       30.22R
HARRISON AR    CLOUDY    39  36  89 N9        30.16R WCI  33
NEAR YELLVILLE CLOUDY    39  34  81 N6        30.17R WCI  35

......KANSAS AND MISSOURI......

CITY           SKY/WX    TMP DP  RH WIND       PRES   REMARKS
KANSAS CTY INT PTSUNNY   37  24  59 N12       30.27S WCI  29
DOWNTOWN KC    PTSUNNY   39  20  46 N10       30.28S WCI  32
COLUMBIA       CLOUDY    36  24  62 N14       30.22R WCI  27
SEDALIA        PTSUNNY   37  26  64 N12       30.24S WCI  29
ST JOSEPH      PTSUNNY   35  21  56 N12       30.30S WCI  27
ST LOUIS       CLOUDY    38  24  57 N14       30.19R WCI  30
SPIRIT OF STL  PTSUNNY   37  22  54 N12       30.19R WCI  29
KIRKSVILLE     MOSUNNY   36  16  44 N14       30.23S WCI  27
WICHITA        PTSUNNY   41  29  62 NE13      30.28R
TOPEKA         SUNNY     38  24  57 N15G22    30.30  WCI  29
OLATHE         PTSUNNY   35  21  56 N13       30.26R WCI  26

......TENNESSEE......

CITY           SKY/WX    TMP DP  RH WIND       PRES   REMARKS
MEMPHIS        LGT RAIN  47  36  65 NW12      30.11R
NASHVILLE      PTSUNNY   48  32  53 N8        30.01F

......ARKANSAS.......

CITY           SKY/WX    TMP DP  RH WIND       PRES   REMARKS
FAYETTEVILLE   CLOUDY    42  36  79 N12G18    30.19R
FT SMITH       MOSUNNY   53  37  54 N22       30.18R
LITTLE ROCK    CLOUDY    50  33  52 NE14      30.15R

......OKLAHOMA.......

CITY           SKY/WX    TMP DP  RH WIND       PRES   REMARKS
TULSA          CLOUDY    46  35  65 N13G23    30.24S
PONCA CITY     CLOUDY    45  32  60 N17       30.27S
MCALESTER      PTSUNNY   50  37  61 NE18G26   30.21R
OKLAHOMA CITY  PTSUNNY   47  37  68 N14       30.24R

......IOWA............

CITY           SKY/WX    TMP DP  RH WIND       PRES   REMARKS
DES MOINES     MOSUNNY   35  10  35 E9        30.27S WCI  28
QUAD CITIES    SUNNY     30   6  36 N12       30.23S WCI  20

......ILLINOIS........

CITY           SKY/WX    TMP DP  RH WIND       PRES   REMARKS
QUINCY         LGT SNOW  33  24  69 N7        30.21R WCI  27
CHICAGO        MOSUNNY   26  10  50 N14G25    30.17R WCI  14




USA.gov is the U.S. government's official web portal to all federal, state and local government web resources and services.